Location: Newark
(39.0622°N, 106.5590°E)
Time: 14:18:43
(UTC+00:00)

S-56A Canister/Altair - Pass Details

Date: 28 January 2020
Orbit: 633 x 2500 km, 38.9° (Epoch: 28 February)

Event Time Altitude Azimuth Distance (km) Brightness Sun altitude
Rises 11:04:53 0° 227° (SW) 5,024 12.9 -11.1°
Reaches altitude 10° 11:08:52 10° 222° (SW) 3,720 11.9 -11.8°
Maximum altitude 11:17:08 41° 156° (SSE) 1,588 9.0 -13.4°
Enters shadow 11:21:24 18° 95° (E) 2,137 9.2 -14.2°
